Location: Lake Arresoe
(56.0000°N, 12.5000°E)
Time: 11:28:38
(UTC+02:00)

Cosmos 1674 - Visible Passes

Search period start: 14 August 2020 00:00
Search period end: 24 August 2020 00:00
Orbit: 493 x 519 km, 82.5° (Epoch: 13 August)

Date Brightness Start Highest point End Pass type
(mag) Time Alt. Az. Time Alt. Az. Time Alt. Az.
14 Aug 3.1 01:28:32 10° N 01:32:14 55° ENE 01:33:07 43° ESE visible
14 Aug 4.4 03:04:50 10° NW 03:07:24 18° W 03:07:55 17° W visible
15 Aug 3.4 01:10:38 10° N 01:14:14 44° ENE 01:15:05 37° ESE visible
15 Aug 4.2 02:46:36 10° NW 02:49:32 22° W 02:49:53 21° W visible
16 Aug 3.7 00:52:43 10° N 00:56:13 35° ENE 00:57:04 31° E visible
16 Aug 3.9 02:28:27 10° NNW 02:31:38 27° W 02:31:52 26° W visible
17 Aug 4.0 00:34:51 10° N 00:38:11 29° ENE 00:39:04 26° E visible
17 Aug 3.6 02:10:21 10° NNW 02:13:44 33° W 02:13:51 33° W visible
18 Aug 4.3 00:17:01 10° N 00:20:08 24° ENE 00:21:04 22° E visible
18 Aug 3.3 01:52:16 10° NNW 01:55:50 41° W 01:55:52 41° W visible
18 Aug 4.5 23:59:13 10° NNE 00:02:04 20° ENE 00:03:05 18° E visible
19 Aug 3.0 01:34:14 10° NNW 01:37:53 52° W 01:37:53 52° W visible
19 Aug 4.8 23:41:28 10° NNE 23:44:00 17° ENE 23:45:06 15° E visible
20 Aug 2.7 01:16:13 10° NNW 01:19:54 66° W 01:19:54 66° W visible
20 Aug 4.9 23:23:47 10° NNE 23:25:54 14° ENE 23:27:08 13° E visible
21 Aug 2.5 00:58:13 10° NNW 01:01:56 83° WNW 01:01:56 83° WNW visible
21 Aug 5.2 02:35:51 10° WNW 02:36:45 11° W 02:36:45 11° W visible
21 Aug 5.1 23:06:16 10° NNE 23:07:48 12° NE 23:09:11 10° ENE visible
22 Aug 2.6 00:40:15 10° N 00:43:59 78° ENE 00:43:59 78° ENE visible
22 Aug 5.0 02:17:07 10° NW 02:18:47 13° W 02:18:47 13° W visible
22 Aug 5.3 22:49:30 10° NE 22:49:40 10° NE 22:49:50 10° ENE visible
23 Aug 2.8 00:22:17 10° N 00:26:02 62° ENE 00:26:02 62° ENE visible
23 Aug 4.8 01:58:43 10° NW 02:00:50 16° W 02:00:50 16° W visible
